Preview of NWS' New Version of Forecast
This preview is not operational and should not be used for support decisions.

Regional Weather Roundup (RWR)

Issued by National Weather Service (NWS)

                            
000
ASUS43 KDMX 180406
RWRIA 

WEATHER ROUNDUP FOR IOWA
NATIONAL WEATHER SERVICE DES MOINES IA
1100 PM CDT TUE SEP 17 2019

NOTE: "FAIR" INDICATES FEW OR NO CLOUDS BELOW 12,000 FEET WITH NO
SIGNIFICANT WEATHER AND/OR OBSTRUCTIONS TO VISIBILITY.

* - THESE STATIONS ARE NOT NWS STATIONS...THUS NOT UNDER NWS
QUALITY CONTROL.  THEY ALSO DO NOT REPORT WEATHER SUCH 
AS PRECIPITATION OR FOG.  

IAZ001>003-012>014-020>022-031>034-043>046-180500-
   NORTHWEST IOWA
  
CITY           SKY/WX    TMP DP  RH WIND       PRES   REMARKS
CARROLL *      CLEAR     72  68  88 S6        29.94S                  
CHEROKEE *     CLEAR     74  70  87 S8        29.89S                  
DENISON *      CLEAR     75  72  88 S13G18    29.93S                  
LE MARS *      CLEAR     77  70  78 SE15      29.85S                  
SHELDON *        N/A     75  70  83 S12G21    29.85S                  
SIOUX CITY     CLEAR     76  68  76 SE12      29.85S                  
SPENCER        MOCLDY    77  68  73 S15       29.90S                  
STORM LAKE *   MOCLDY    73  70  88 S10G18    29.89S                  
$$
 
IAZ055>058-069>071-079>083-090>094-180500-
   SOUTHWEST IOWA
  
CITY           SKY/WX    TMP DP  RH WIND       PRES   REMARKS
ATLANTIC *     CLEAR     75  72  88 S7        29.93S                  
AUDUBON *        N/A     72  66  83 SE3       29.96S                  
CLARINDA *     CLEAR     73  72  94 S6        29.96S                  
COUNCIL BLFS * PTCLDY    77  73  88 SE13      29.90F                  
CRESTON *      CLEAR     73  70  88 SE8       29.97S                  
HARLAN  *      CLEAR     75  70  83 S8        29.93S                  
LAMONI         CLEAR     76  69  79 SE8       29.98F                  
RED OAK *      CLEAR     73  70  88 S7        29.94S HAZE             
SHENANDOAH *   CLEAR     75  70  83 SE7       29.92S                  
$$
 
IAZ047>049-059>061-072>074-084-180500-
   CENTRAL IOWA
  
CITY           SKY/WX    TMP DP  RH WIND       PRES   REMARKS
AMES           CLEAR     75  72  90 SE10      29.97S                  
ANKENY *       CLEAR     77  73  88 SE9       29.98S                  
BOONE *        CLEAR     75  75 100 SE10G16   29.96S                  
CHARITON *     CLEAR     75  75 100 SE9       29.99S                  
DES MOINES     MOCLDY    77  71  82 SE13      29.96S                  
GRINNELL*      CLEAR     73  67  84 SE12      30.03S                  
KNOXVILLE *      N/A     75  73  94 SE10      29.99S                  
MARSHALLTOWN   CLEAR     71  67  87 SE13      29.99S                  
NEWTON *       CLEAR     73  72  94 SE9       29.99F                  
PELLA *        CLEAR     74  69  85 SE9       30.01S                  
PERRY *        FAIR      75  69  82 SE8       29.95S                  
$$
 
IAZ004>006-015-016-023>025-035-036-180500-
   NORTH CENTRAL IOWA
  
CITY           SKY/WX    TMP DP  RH WIND       PRES   REMARKS
ALGONA *       CLEAR     75  75 100 S15G24    29.93R                  
CLARION *        N/A     73  72  94 SE12G20   29.96S                  
ESTHERVILLE    CLEAR     72  67  84 S13       29.91S                  
FORT DODGE *   CLEAR     77  72  84 SE9       29.95S                  
MASON CITY     CLEAR     71  64  78 SE13G23   29.99S                  
FOREST CITY *  FAIR      72  70  94 SE14G20   29.97R                  
IOWA FALLS *     N/A     72  64  77 SE12      30.00S                  
$$

IAZ007>011-017>019-026>030-037>042-050>054-066-180500-
   NORTHEAST IOWA
  
CITY           SKY/WX    TMP DP  RH WIND       PRES   REMARKS
CEDAR RAPIDS   FAIR      69  67  93 SE8       30.04S                  
CHARLES CITY * FAIR      70  68  94 SE12      30.01S                  
CLINTON *      FAIR      69  67  93 E9        30.09R                  
DECORAH *      FAIR      68  68 100 SE10      30.03S                  
DUBUQUE        FAIR      68  66  93 SE8       30.09S                  
MONTICELLO *   FAIR      70  70 100 SE7       30.06F                  
OELWEIN *      CLEAR     68  70 100 SE10      30.04S                  
WATERLOO       FAIR      74  67  78 SE13      30.00S                  
$$
 
IAZ064-065-067-068-078-180500-
   EAST CENTRAL IOWA
  
CITY           SKY/WX    TMP DP  RH WIND       PRES   REMARKS
DAVENPORT      FAIR      70  66  87 SE8       30.09R                  
IOWA CITY      FAIR      72  67  84 SE6       30.05S                  
MUSCATINE *    FAIR      72  68  88 SE5       30.05S                  
QUAD CITIES    FAIR      69  66  90 E7        30.07R                  
$$
 
IAZ062-063-075>077-085>089-095>099-180500-
   SOUTHEAST IOWA
  
CITY           SKY/WX    TMP DP  RH WIND       PRES   REMARKS
BURLINGTON     CLEAR     73  66  78 SE8       30.05S                  
FAIRFIELD *    PTCLDY    72  70  94 SE8       30.04R                  
FORT MADISON * CLEAR     73  68  83 SE7       30.06R                  
KEOKUK *       CLEAR     73  70  88 SE10      30.04S                  
OSKALOOSA *    FAIR      71  66  84 SE9       30.02S                  
CENTERVILLE *  FAIR      73  73 100 SE8       30.03S                  
OTTUMWA        CLEAR     74  68  81 SE10      30.01F                  
WASHINGTON *     N/A    N/A N/A N/A MISG        N/A                   
$$

ABBREVIATIONS USED IN REMARKS
   TC - TEMPERATURES IN CELSIUS
  WCI - WIND CHILL INDEX
   HX - HEAT INDEX
  VSB - VISIBILITY  
$$